2023-12-19T00:00:00,axn,34.32
2023-12-19T00:01:00,axn,33.92
2023-12-19T00:02:00,axn,33.88
2023-12-19T00:03:00,axn,34.74
2023-12-19T00:04:00,axn,34.35
2023-12-19T00:05:00,axn,50.67
2023-12-19T00:06:00,axn,44.24
2023-12-19T00:07:00,axn,44.57
2023-12-19T00:08:00,axn,44.47
2023-12-19T00:09:00,axn,36.03
2023-12-19T00:10:00,axn,34.24
2023-12-19T00:11:00,axn,34.40
2023-12-19T00:12:00,axn,34.73
2023-12-19T00:13:00,axn,34.68
2023-12-19T00:14:00,axn,34.80
2023-12-19T00:15:00,axn,34.85
2023-12-19T00:16:00,axn,35.87
2023-12-19T00:17:00,axn,36.00
2023-12-19T00:18:00,axn,35.79
2023-12-19T00:19:00,axn,35.64
2023-12-19T00:20:00,axn,35.37
2023-12-19T00:21:00,axn,35.26
2023-12-19T00:22:00,axn,35.50
2023-12-19T00:23:00,axn,35.66
2023-12-19T00:24:00,axn,35.10
2023-12-19T00:25:00,axn,38.29
2023-12-19T00:26:00,axn,35.34
2023-12-19T00:27:00,axn,35.62
2023-12-19T00:28:00,axn,35.84
2023-12-19T00:29:00,axn,35.59
2023-12-19T00:30:00,axn,35.27
2023-12-19T00:31:00,axn,35.11
2023-12-19T00:32:00,axn,36.41
2023-12-19T00:33:00,axn,34.70
2023-12-19T00:34:00,axn,34.81
2023-12-19T00:35:00,axn,35.09
2023-12-19T00:36:00,axn,34.39
2023-12-19T00:37:00,axn,34.72
2023-12-19T00:38:00,axn,34.75
2023-12-19T00:39:00,axn,34.86
2023-12-19T00:40:00,axn,35.34
2023-12-19T00:41:00,axn,35.00
2023-12-19T00:42:00,axn,34.58
2023-12-19T00:43:00,axn,34.59
2023-12-19T00:44:00,axn,34.26
2023-12-19T00:45:00,axn,34.40
2023-12-19T00:46:00,axn,34.57
2023-12-19T00:47:00,axn,34.25
2023-12-19T00:48:00,axn,34.03
2023-12-19T00:49:00,axn,34.33
2023-12-19T00:50:00,axn,34.42
2023-12-19T00:51:00,axn,34.39
2023-12-19T00:52:00,axn,34.49
2023-12-19T00:53:00,axn,34.55
2023-12-19T00:54:00,axn,34.40
2023-12-19T00:55:00,axn,33.91
2023-12-19T00:56:00,axn,34.06
2023-12-19T00:57:00,axn,34.68
2023-12-19T00:58:00,axn,34.28
2023-12-19T00:59:00,axn,29.50
2023-12-19T01:00:00,axn,29.56
2023-12-19T01:01:00,axn,28.29
2023-12-19T01:02:00,axn,28.24
2023-12-19T01:03:00,axn,28.36
2023-12-19T01:04:00,axn,28.55
2023-12-19T01:05:00,axn,28.27
2023-12-19T01:06:00,axn,28.10
2023-12-19T01:07:00,axn,28.17
2023-12-19T01:08:00,axn,28.24
2023-12-19T01:09:00,axn,28.35
2023-12-19T01:10:00,axn,28.25
2023-12-19T01:11:00,axn,28.40
2023-12-19T01:12:00,axn,28.39
2023-12-19T01:13:00,axn,28.41
2023-12-19T01:14:00,axn,28.52
2023-12-19T01:15:00,axn,28.46
2023-12-19T01:16:00,axn,28.51
2023-12-19T01:17:00,axn,28.65
2023-12-19T01:18:00,axn,28.67
2023-12-19T01:19:00,axn,28.34
2023-12-19T01:20:00,axn,28.35
2023-12-19T01:21:00,axn,28.42
2023-12-19T01:22:00,axn,28.87
2023-12-19T01:23:00,axn,28.39
2023-12-19T01:24:00,axn,28.57
2023-12-19T01:25:00,axn,28.39
2023-12-19T01:26:00,axn,28.69
2023-12-19T01:27:00,axn,28.75
2023-12-19T01:28:00,axn,28.41
2023-12-19T01:29:00,axn,28.93
2023-12-19T01:30:00,axn,28.30
2023-12-19T01:31:00,axn,28.57
2023-12-19T01:32:00,axn,29.16
2023-12-19T01:33:00,axn,29.18
2023-12-19T01:34:00,axn,28.34
2023-12-19T01:35:00,axn,28.32
2023-12-19T01:36:00,axn,28.33
2023-12-19T01:37:00,axn,28.28
2023-12-19T01:38:00,axn,28.36
2023-12-19T01:39:00,axn,28.63
2023-12-19T01:40:00,axn,28.45
2023-12-19T01:41:00,axn,28.44
2023-12-19T01:42:00,axn,28.40
2023-12-19T01:43:00,axn,28.41
2023-12-19T01:44:00,axn,28.27
2023-12-19T01:45:00,axn,28.44
2023-12-19T01:46:00,axn,28.76
2023-12-19T01:47:00,axn,28.40
2023-12-19T01:48:00,axn,28.43
2023-12-19T01:49:00,axn,28.87
2023-12-19T01:50:00,axn,28.36
2023-12-19T01:51:00,axn,28.20
2023-12-19T01:52:00,axn,28.44
2023-12-19T01:53:00,axn,28.53
2023-12-19T01:54:00,axn,29.05
2023-12-19T01:55:00,axn,28.77
2023-12-19T01:56:00,axn,28.75
2023-12-19T01:57:00,axn,28.55
2023-12-19T01:58:00,axn,28.39
2023-12-19T01:59:00,axn,28.43
2023-12-19T02:00:00,axn,28.50
2023-12-19T02:01:00,axn,28.38
2023-12-19T02:02:00,axn,28.49
2023-12-19T02:03:00,axn,28.46
2023-12-19T02:04:00,axn,28.36
2023-12-19T02:05:00,axn,28.44
2023-12-19T02:06:00,axn,29.09
2023-12-19T02:07:00,axn,28.40
2023-12-19T02:08:00,axn,28.36
2023-12-19T02:09:00,axn,28.27
2023-12-19T02:10:00,axn,28.49
2023-12-19T02:11:00,axn,28.18
2023-12-19T02:12:00,axn,28.30
2023-12-19T02:13:00,axn,28.40
2023-12-19T02:14:00,axn,28.71
2023-12-19T02:15:00,axn,28.35
2023-12-19T02:16:00,axn,28.25
2023-12-19T02:17:00,axn,28.33
2023-12-19T02:18:00,axn,28.46
2023-12-19T02:19:00,axn,28.54
2023-12-19T02:20:00,axn,28.56
2023-12-19T02:21:00,axn,28.69
2023-12-19T02:22:00,axn,28.40
2023-12-19T02:23:00,axn,28.40
2023-12-19T02:24:00,axn,28.46
2023-12-19T02:25:00,axn,28.52
2023-12-19T02:26:00,axn,28.75
2023-12-19T02:27:00,axn,28.20
2023-12-19T02:28:00,axn,28.11
2023-12-19T02:29:00,axn,27.80
2023-12-19T02:30:00,axn,28.35
2023-12-19T02:31:00,axn,28.32
2023-12-19T02:32:00,axn,28.36
2023-12-19T02:33:00,axn,27.96
2023-12-19T02:34:00,axn,28.03
2023-12-19T02:35:00,axn,28.06
2023-12-19T02:36:00,axn,28.00
2023-12-19T02:37:00,axn,28.96
2023-12-19T02:38:00,axn,28.07
2023-12-19T02:39:00,axn,28.00
2023-12-19T02:40:00,axn,47.51
2023-12-19T02:41:00,axn,47.82
2023-12-19T02:42:00,axn,47.04
2023-12-19T02:43:00,axn,47.21
2023-12-19T02:44:00,axn,42.32
2023-12-19T02:45:00,axn,28.03
2023-12-19T02:46:00,axn,28.06
2023-12-19T02:47:00,axn,27.88
2023-12-19T02:48:00,axn,27.91
2023-12-19T02:49:00,axn,27.89
2023-12-19T02:50:00,axn,27.93
2023-12-19T02:51:00,axn,27.94
2023-12-19T02:52:00,axn,27.86
2023-12-19T02:53:00,axn,27.94
2023-12-19T02:54:00,axn,27.93
2023-12-19T02:55:00,axn,27.90
2023-12-19T02:56:00,axn,28.25
2023-12-19T02:57:00,axn,27.91
2023-12-19T02:58:00,axn,27.96
2023-12-19T02:59:00,axn,28.04
2023-12-19T03:00:00,axn,28.12
2023-12-19T03:01:00,axn,28.36
2023-12-19T03:02:00,axn,30.80
2023-12-19T03:03:00,axn,30.67
2023-12-19T03:04:00,axn,28.23
2023-12-19T03:05:00,axn,27.99
2023-12-19T03:06:00,axn,27.90
2023-12-19T03:07:00,axn,27.80
2023-12-19T03:08:00,axn,27.65
2023-12-19T03:09:00,axn,27.91
2023-12-19T03:10:00,axn,27.70
2023-12-19T03:11:00,axn,28.02
2023-12-19T03:12:00,axn,27.65
2023-12-19T03:13:00,axn,27.73
2023-12-19T03:14:00,axn,28.27
2023-12-19T03:15:00,axn,27.83
2023-12-19T03:16:00,axn,27.92
2023-12-19T03:17:00,axn,27.98
2023-12-19T03:18:00,axn,27.87
2023-12-19T03:19:00,axn,28.02
2023-12-19T03:20:00,axn,27.91
2023-12-19T03:21:00,axn,27.97
2023-12-19T03:22:00,axn,28.18
2023-12-19T03:23:00,axn,28.08
2023-12-19T03:24:00,axn,28.18
2023-12-19T03:25:00,axn,27.51
2023-12-19T03:26:00,axn,27.63
2023-12-19T03:27:00,axn,27.71
2023-12-19T03:28:00,axn,27.65
2023-12-19T03:29:00,axn,30.23
2023-12-19T03:30:00,axn,27.56
2023-12-19T03:31:00,axn,27.55
2023-12-19T03:32:00,axn,27.58
2023-12-19T03:33:00,axn,27.96
2023-12-19T03:34:00,axn,27.51
2023-12-19T03:35:00,axn,27.59
2023-12-19T03:36:00,axn,27.62
2023-12-19T03:37:00,axn,27.56
2023-12-19T03:38:00,axn,27.58
2023-12-19T03:39:00,axn,27.48
2023-12-19T03:40:00,axn,28.38
2023-12-19T03:41:00,axn,28.32
2023-12-19T03:42:00,axn,27.54
2023-12-19T03:43:00,axn,27.74
2023-12-19T03:44:00,axn,27.63
2023-12-19T03:45:00,axn,27.79
2023-12-19T03:46:00,axn,27.82
2023-12-19T03:47:00,axn,27.57
2023-12-19T03:48:00,axn,27.53
2023-12-19T03:49:00,axn,27.47
2023-12-19T03:50:00,axn,27.71
2023-12-19T03:51:00,axn,27.38
2023-12-19T03:52:00,axn,27.40
2023-12-19T03:53:00,axn,27.50
2023-12-19T03:54:00,axn,27.25
2023-12-19T03:55:00,axn,27.34
2023-12-19T03:56:00,axn,27.34
2023-12-19T03:57:00,axn,27.46
2023-12-19T03:58:00,axn,27.38
2023-12-19T03:59:00,axn,27.68
2023-12-19T04:00:00,axn,27.33
2023-12-19T04:01:00,axn,27.57
2023-12-19T04:02:00,axn,27.38
2023-12-19T04:03:00,axn,27.23
2023-12-19T04:04:00,axn,27.18
2023-12-19T04:05:00,axn,27.19
2023-12-19T04:06:00,axn,27.10
2023-12-19T04:07:00,axn,27.07
2023-12-19T04:08:00,axn,27.38
2023-12-19T04:09:00,axn,27.31
2023-12-19T04:10:00,axn,26.81
2023-12-19T04:11:00,axn,26.84
2023-12-19T04:12:00,axn,26.89
2023-12-19T04:13:00,axn,27.21
2023-12-19T04:14:00,axn,26.83
2023-12-19T04:15:00,axn,26.73
2023-12-19T04:16:00,axn,26.83
2023-12-19T04:17:00,axn,26.83
2023-12-19T04:18:00,axn,26.97
2023-12-19T04:19:00,axn,26.98
2023-12-19T04:20:00,axn,26.83
2023-12-19T04:21:00,axn,26.77
2023-12-19T04:22:00,axn,26.76
2023-12-19T04:23:00,axn,27.29
2023-12-19T04:24:00,axn,26.93
2023-12-19T04:25:00,axn,26.98
2023-12-19T04:26:00,axn,26.86
2023-12-19T04:27:00,axn,27.30
2023-12-19T04:28:00,axn,27.04
2023-12-19T04:29:00,axn,26.89
2023-12-19T04:30:00,axn,27.66
2023-12-19T04:31:00,axn,27.65
2023-12-19T04:32:00,axn,27.61
2023-12-19T04:33:00,axn,26.91
2023-12-19T04:34:00,axn,27.09
2023-12-19T04:35:00,axn,27.43
2023-12-19T04:36:00,axn,27.07
2023-12-19T04:37:00,axn,26.89
2023-12-19T04:38:00,axn,27.29
2023-12-19T04:39:00,axn,26.81
2023-12-19T04:40:00,axn,26.68
2023-12-19T04:41:00,axn,26.75
2023-12-19T04:42:00,axn,26.62
2023-12-19T04:43:00,axn,27.05
2023-12-19T04:44:00,axn,27.06
2023-12-19T04:45:00,axn,26.70
2023-12-19T04:46:00,axn,26.48
2023-12-19T04:47:00,axn,26.79
2023-12-19T04:48:00,axn,26.87
2023-12-19T04:49:00,axn,26.76
2023-12-19T04:50:00,axn,26.80
2023-12-19T04:51:00,axn,27.22
2023-12-19T04:52:00,axn,26.97
2023-12-19T04:53:00,axn,26.78
2023-12-19T04:54:00,axn,26.90
2023-12-19T04:55:00,axn,26.75
2023-12-19T04:56:00,axn,26.63
2023-12-19T04:57:00,axn,26.54
2023-12-19T04:58:00,axn,26.85
2023-12-19T04:59:00,axn,27.19
2023-12-19T05:00:00,axn,27.78
2023-12-19T05:01:00,axn,29.47
2023-12-19T05:02:00,axn,30.79
2023-12-19T05:03:00,axn,31.91
2023-12-19T05:04:00,axn,32.66
2023-12-19T05:05:00,axn,32.05
2023-12-19T05:06:00,axn,30.88
2023-12-19T05:07:00,axn,30.83
2023-12-19T05:08:00,axn,30.97
2023-12-19T05:09:00,axn,41.14
2023-12-19T05:10:00,axn,41.72
2023-12-19T05:11:00,axn,46.18
2023-12-19T05:12:00,axn,41.14
2023-12-19T05:13:00,axn,30.60
2023-12-19T05:14:00,axn,30.45
2023-12-19T05:15:00,axn,30.71
2023-12-19T05:16:00,axn,37.14
2023-12-19T05:17:00,axn,37.89
2023-12-19T05:18:00,axn,37.24
2023-12-19T05:19:00,axn,36.56
2023-12-19T05:20:00,axn,30.68
2023-12-19T05:21:00,axn,30.58
2023-12-19T05:22:00,axn,30.24
2023-12-19T05:23:00,axn,29.88
2023-12-19T05:24:00,axn,30.25
2023-12-19T05:25:00,axn,30.43
2023-12-19T05:26:00,axn,30.73
2023-12-19T05:27:00,axn,31.04
2023-12-19T05:28:00,axn,30.88
2023-12-19T05:29:00,axn,30.92
2023-12-19T05:30:00,axn,30.94
2023-12-19T05:31:00,axn,32.01
2023-12-19T05:32:00,axn,31.92
2023-12-19T05:33:00,axn,31.95
2023-12-19T05:34:00,axn,32.32
2023-12-19T05:35:00,axn,32.51
2023-12-19T05:36:00,axn,31.89
2023-12-19T05:37:00,axn,31.28
2023-12-19T05:38:00,axn,31.02
2023-12-19T05:39:00,axn,31.40
2023-12-19T05:40:00,axn,31.99
2023-12-19T05:41:00,axn,31.80
2023-12-19T05:42:00,axn,30.66
2023-12-19T05:43:00,axn,30.72
2023-12-19T05:44:00,axn,30.58
2023-12-19T05:45:00,axn,30.49
2023-12-19T05:46:00,axn,31.43
2023-12-19T05:47:00,axn,30.32
2023-12-19T05:48:00,axn,30.32
2023-12-19T05:49:00,axn,29.89
2023-12-19T05:50:00,axn,29.54
2023-12-19T05:51:00,axn,30.00
2023-12-19T05:52:00,axn,30.01
2023-12-19T05:53:00,axn,30.51
2023-12-19T05:54:00,axn,29.75
2023-12-19T05:55:00,axn,30.28
2023-12-19T05:56:00,axn,30.32
2023-12-19T05:57:00,axn,30.17
2023-12-19T05:58:00,axn,30.55
2023-12-19T05:59:00,axn,30.23
2023-12-19T06:00:00,axn,30.18
2023-12-19T06:01:00,axn,30.43
2023-12-19T06:02:00,axn,30.04
2023-12-19T06:03:00,axn,29.99
2023-12-19T06:04:00,axn,30.08
2023-12-19T06:05:00,axn,30.17
2023-12-19T06:06:00,axn,29.61
2023-12-19T06:07:00,axn,30.22
2023-12-19T06:08:00,axn,32.68
2023-12-19T06:09:00,axn,31.31
2023-12-19T06:10:00,axn,31.82
2023-12-19T06:11:00,axn,30.96
2023-12-19T06:12:00,axn,31.21
2023-12-19T06:13:00,axn,31.26
2023-12-19T06:14:00,axn,30.39
2023-12-19T06:15:00,axn,30.68
2023-12-19T06:16:00,axn,30.66
2023-12-19T06:17:00,axn,30.51
2023-12-19T06:18:00,axn,29.92
2023-12-19T06:19:00,axn,30.04
2023-12-19T06:20:00,axn,30.07
2023-12-19T06:21:00,axn,30.50
2023-12-19T06:22:00,axn,30.24
2023-12-19T06:23:00,axn,30.34
2023-12-19T06:24:00,axn,30.41
2023-12-19T06:25:00,axn,30.15
2023-12-19T06:26:00,axn,30.05
2023-12-19T06:27:00,axn,30.33
2023-12-19T06:28:00,axn,30.59
2023-12-19T06:29:00,axn,30.37
2023-12-19T06:30:00,axn,30.66
2023-12-19T06:31:00,axn,30.82
2023-12-19T06:32:00,axn,30.04
2023-12-19T06:33:00,axn,29.98
2023-12-19T06:34:00,axn,30.07
2023-12-19T06:35:00,axn,30.58
2023-12-19T06:36:00,axn,30.15
2023-12-19T06:37:00,axn,30.18
2023-12-19T06:38:00,axn,30.41
2023-12-19T06:39:00,axn,30.30
2023-12-19T06:40:00,axn,30.24
2023-12-19T06:41:00,axn,30.26
2023-12-19T06:42:00,axn,29.94
2023-12-19T06:43:00,axn,29.81
2023-12-19T06:44:00,axn,29.68
2023-12-19T06:45:00,axn,29.82
2023-12-19T06:46:00,axn,30.05
2023-12-19T06:47:00,axn,29.79
2023-12-19T06:48:00,axn,29.61
2023-12-19T06:49:00,axn,29.63
2023-12-19T06:50:00,axn,29.65
2023-12-19T06:51:00,axn,29.84
2023-12-19T06:52:00,axn,30.40
2023-12-19T06:53:00,axn,35.13
2023-12-19T06:54:00,axn,29.77
2023-12-19T06:55:00,axn,29.99
2023-12-19T06:56:00,axn,30.17
2023-12-19T06:57:00,axn,30.66
2023-12-19T06:58:00,axn,30.38
2023-12-19T06:59:00,axn,30.57
2023-12-19T07:00:00,axn,30.63
2023-12-19T07:01:00,axn,31.29
2023-12-19T07:02:00,axn,32.43
2023-12-19T07:03:00,axn,32.03
2023-12-19T07:04:00,axn,31.87
2023-12-19T07:05:00,axn,31.67
2023-12-19T07:06:00,axn,31.30
2023-12-19T07:07:00,axn,31.63
2023-12-19T07:08:00,axn,31.66
2023-12-19T07:09:00,axn,31.59
2023-12-19T07:10:00,axn,31.78
2023-12-19T07:11:00,axn,31.93
2023-12-19T07:12:00,axn,31.38
2023-12-19T07:13:00,axn,31.20
2023-12-19T07:14:00,axn,31.64
2023-12-19T07:15:00,axn,31.60
2023-12-19T07:16:00,axn,31.28
2023-12-19T07:17:00,axn,31.11
2023-12-19T07:18:00,axn,31.60
2023-12-19T07:19:00,axn,31.46
2023-12-19T07:20:00,axn,32.09
2023-12-19T07:21:00,axn,31.71
2023-12-19T07:22:00,axn,31.61
2023-12-19T07:23:00,axn,31.89
2023-12-19T07:24:00,axn,32.16
2023-12-19T07:25:00,axn,31.97
2023-12-19T07:26:00,axn,32.23
2023-12-19T07:27:00,axn,32.45
2023-12-19T07:28:00,axn,33.06
2023-12-19T07:29:00,axn,34.33
2023-12-19T07:30:00,axn,33.13
2023-12-19T07:31:00,axn,33.15
2023-12-19T07:32:00,axn,33.41
2023-12-19T07:33:00,axn,33.51
2023-12-19T07:34:00,axn,33.50
2023-12-19T07:35:00,axn,35.56
2023-12-19T07:36:00,axn,33.28
2023-12-19T07:37:00,axn,33.27
2023-12-19T07:38:00,axn,33.28
2023-12-19T07:39:00,axn,33.67
2023-12-19T07:40:00,axn,33.51
2023-12-19T07:41:00,axn,33.89
2023-12-19T07:42:00,axn,33.83
2023-12-19T07:43:00,axn,33.68
2023-12-19T07:44:00,axn,33.75
2023-12-19T07:45:00,axn,33.77
2023-12-19T07:46:00,axn,33.85
2023-12-19T07:47:00,axn,33.95
2023-12-19T07:48:00,axn,33.92
2023-12-19T07:49:00,axn,33.81
2023-12-19T07:50:00,axn,35.65
2023-12-19T07:51:00,axn,36.25
2023-12-19T07:52:00,axn,36.67
2023-12-19T07:53:00,axn,34.49
2023-12-19T07:54:00,axn,36.45
2023-12-19T07:55:00,axn,36.24
2023-12-19T07:56:00,axn,36.19
2023-12-19T07:57:00,axn,34.90
2023-12-19T07:58:00,axn,34.11
2023-12-19T07:59:00,axn,36.92
2023-12-19T08:00:00,axn,36.40
2023-12-19T08:01:00,axn,39.49
2023-12-19T08:02:00,axn,40.71
2023-12-19T08:03:00,axn,39.89
2023-12-19T08:04:00,axn,41.24
2023-12-19T08:05:00,axn,40.10
2023-12-19T08:06:00,axn,42.57
2023-12-19T08:07:00,axn,43.38
2023-12-19T08:08:00,axn,43.13
2023-12-19T08:09:00,axn,41.24
2023-12-19T08:10:00,axn,41.12
2023-12-19T08:11:00,axn,43.90
2023-12-19T08:12:00,axn,43.02
2023-12-19T08:13:00,axn,42.80
2023-12-19T08:14:00,axn,55.83
2023-12-19T08:15:00,axn,58.94
2023-12-19T08:16:00,axn,58.49
2023-12-19T08:17:00,axn,57.40
2023-12-19T08:18:00,axn,54.99
2023-12-19T08:19:00,axn,54.76
2023-12-19T08:20:00,axn,44.74
2023-12-19T08:21:00,axn,43.05
2023-12-19T08:22:00,axn,43.26
2023-12-19T08:23:00,axn,42.68
2023-12-19T08:24:00,axn,43.55
2023-12-19T08:25:00,axn,43.84
2023-12-19T08:26:00,axn,41.84
2023-12-19T08:27:00,axn,42.04
2023-12-19T08:28:00,axn,44.22
2023-12-19T08:29:00,axn,44.11
2023-12-19T08:30:00,axn,45.22
2023-12-19T08:31:00,axn,45.04
2023-12-19T08:32:00,axn,42.36
2023-12-19T08:33:00,axn,44.20
2023-12-19T08:34:00,axn,44.12
2023-12-19T08:35:00,axn,49.25
2023-12-19T08:36:00,axn,45.25
2023-12-19T08:37:00,axn,44.32
2023-12-19T08:38:00,axn,45.11
2023-12-19T08:39:00,axn,44.67
2023-12-19T08:40:00,axn,43.08
2023-12-19T08:41:00,axn,42.92
2023-12-19T08:42:00,axn,47.67
2023-12-19T08:43:00,axn,47.22
2023-12-19T08:44:00,axn,42.66
2023-12-19T08:45:00,axn,42.63
2023-12-19T08:46:00,axn,44.75
2023-12-19T08:47:00,axn,44.31
2023-12-19T08:48:00,axn,44.71
2023-12-19T08:49:00,axn,43.86
2023-12-19T08:50:00,axn,42.68
2023-12-19T08:51:00,axn,43.22
2023-12-19T08:52:00,axn,42.44
2023-12-19T08:53:00,axn,45.47
2023-12-19T08:54:00,axn,43.15
2023-12-19T08:55:00,axn,42.96
2023-12-19T08:56:00,axn,44.89
2023-12-19T08:57:00,axn,42.86
2023-12-19T08:58:00,axn,44.13
2023-12-19T08:59:00,axn,44.14
2023-12-19T09:00:00,axn,42.14
2023-12-19T09:01:00,axn,44.26
2023-12-19T09:02:00,axn,42.57
2023-12-19T09:03:00,axn,44.43
2023-12-19T09:04:00,axn,44.10
2023-12-19T09:05:00,axn,74.24
2023-12-19T09:06:00,axn,52.63
2023-12-19T09:07:00,axn,52.25
2023-12-19T09:08:00,axn,51.14
2023-12-19T09:09:00,axn,53.29
2023-12-19T09:10:00,axn,50.97
2023-12-19T09:11:00,axn,52.58
2023-12-19T09:12:00,axn,51.93
2023-12-19T09:13:00,axn,50.81
2023-12-19T09:14:00,axn,52.53
2023-12-19T09:15:00,axn,50.66
2023-12-19T09:16:00,axn,50.50
2023-12-19T09:17:00,axn,50.25
2023-12-19T09:18:00,axn,50.24
2023-12-19T09:19:00,axn,50.21
2023-12-19T09:20:00,axn,51.04
2023-12-19T09:21:00,axn,53.77
2023-12-19T09:22:00,axn,51.49
2023-12-19T09:23:00,axn,51.29
2023-12-19T09:24:00,axn,51.60
2023-12-19T09:25:00,axn,51.47
2023-12-19T09:26:00,axn,51.63
2023-12-19T09:27:00,axn,50.47
2023-12-19T09:28:00,axn,52.84
2023-12-19T09:29:00,axn,49.48
2023-12-19T09:30:00,axn,49.12
2023-12-19T09:31:00,axn,50.93
2023-12-19T09:32:00,axn,51.74
2023-12-19T09:33:00,axn,49.20
2023-12-19T09:34:00,axn,51.46
2023-12-19T09:35:00,axn,51.15
2023-12-19T09:36:00,axn,49.28
2023-12-19T09:37:00,axn,49.36
2023-12-19T09:38:00,axn,52.55
2023-12-19T09:39:00,axn,51.50
2023-12-19T09:40:00,axn,49.44
2023-12-19T09:41:00,axn,50.96
2023-12-19T09:42:00,axn,49.71
2023-12-19T09:43:00,axn,49.63
2023-12-19T09:44:00,axn,51.75
2023-12-19T09:45:00,axn,51.57
2023-12-19T09:46:00,axn,49.63
2023-12-19T09:47:00,axn,50.25
2023-12-19T09:48:00,axn,52.37
2023-12-19T09:49:00,axn,52.20
2023-12-19T09:50:00,axn,62.38
2023-12-19T09:51:00,axn,61.75
2023-12-19T09:52:00,axn,61.87
2023-12-19T09:53:00,axn,59.22
2023-12-19T09:54:00,axn,51.52
2023-12-19T09:55:00,axn,49.45
2023-12-19T09:56:00,axn,52.25
2023-12-19T09:57:00,axn,50.46
2023-12-19T09:58:00,axn,51.66
2023-12-19T09:59:00,axn,51.96
2023-12-19T10:00:00,axn,50.49
2023-12-19T10:01:00,axn,49.99
2023-12-19T10:02:00,axn,50.50
2023-12-19T10:03:00,axn,52.67
2023-12-19T10:04:00,axn,51.57
2023-12-19T10:05:00,axn,50.44
2023-12-19T10:06:00,axn,51.93
2023-12-19T10:07:00,axn,51.55
2023-12-19T10:08:00,axn,50.72
2023-12-19T10:09:00,axn,52.24
2023-12-19T10:10:00,axn,49.85
2023-12-19T10:11:00,axn,51.37
2023-12-19T10:12:00,axn,51.45
2023-12-19T10:13:00,axn,49.50
2023-12-19T10:14:00,axn,50.47
2023-12-19T10:15:00,axn,52.55
2023-12-19T10:16:00,axn,51.90
2023-12-19T10:17:00,axn,52.78
2023-12-19T10:18:00,axn,52.57
2023-12-19T10:19:00,axn,50.36
2023-12-19T10:20:00,axn,65.22
2023-12-19T10:21:00,axn,57.78
2023-12-19T10:22:00,axn,56.53
2023-12-19T10:23:00,axn,56.40
2023-12-19T10:24:00,axn,53.61
2023-12-19T10:25:00,axn,51.33
2023-12-19T10:26:00,axn,52.70
2023-12-19T10:27:00,axn,54.39
2023-12-19T10:28:00,axn,55.71
2023-12-19T10:29:00,axn,56.82
2023-12-19T10:30:00,axn,53.65
2023-12-19T10:31:00,axn,55.73
2023-12-19T10:32:00,axn,61.53
2023-12-19T10:33:00,axn,58.77
2023-12-19T10:34:00,axn,57.29
2023-12-19T10:35:00,axn,57.86
2023-12-19T10:36:00,axn,60.20
2023-12-19T10:37:00,axn,60.09
2023-12-19T10:38:00,axn,56.57
2023-12-19T10:39:00,axn,60.28
2023-12-19T10:40:00,axn,61.16
2023-12-19T10:41:00,axn,56.97
2023-12-19T10:42:00,axn,55.94
2023-12-19T10:43:00,axn,57.63
2023-12-19T10:44:00,axn,55.87
2023-12-19T10:45:00,axn,55.17
2023-12-19T10:46:00,axn,55.30
2023-12-19T10:47:00,axn,54.15
2023-12-19T10:48:00,axn,53.96
2023-12-19T10:49:00,axn,55.19
2023-12-19T10:50:00,axn,54.25
2023-12-19T10:51:00,axn,60.77
2023-12-19T10:52:00,axn,60.84
2023-12-19T10:53:00,axn,53.85
2023-12-19T10:54:00,axn,60.44
2023-12-19T10:55:00,axn,61.58
2023-12-19T10:56:00,axn,55.49
2023-12-19T10:57:00,axn,54.63
2023-12-19T10:58:00,axn,55.42
2023-12-19T10:59:00,axn,55.35
2023-12-19T11:00:00,axn,54.43
2023-12-19T11:01:00,axn,54.57
2023-12-19T11:02:00,axn,56.28
2023-12-19T11:03:00,axn,54.77
2023-12-19T11:04:00,axn,55.02
2023-12-19T11:05:00,axn,54.65
2023-12-19T11:06:00,axn,53.63
2023-12-19T11:07:00,axn,53.61
2023-12-19T11:08:00,axn,60.81
2023-12-19T11:09:00,axn,58.93
2023-12-19T11:10:00,axn,56.61
2023-12-19T11:11:00,axn,57.61
2023-12-19T11:12:00,axn,58.48
2023-12-19T11:13:00,axn,57.99
2023-12-19T11:14:00,axn,59.41
2023-12-19T11:15:00,axn,61.28
2023-12-19T11:16:00,axn,61.65
2023-12-19T11:17:00,axn,58.55
2023-12-19T11:18:00,axn,60.27
2023-12-19T11:19:00,axn,59.18
2023-12-19T11:20:00,axn,59.39
2023-12-19T11:21:00,axn,57.98
2023-12-19T11:22:00,axn,57.00
2023-12-19T11:23:00,axn,57.32
2023-12-19T11:24:00,axn,59.30
2023-12-19T11:25:00,axn,57.52
2023-12-19T11:26:00,axn,57.21
2023-12-19T11:27:00,axn,54.88
2023-12-19T11:28:00,axn,56.85
2023-12-19T11:29:00,axn,55.82
2023-12-19T11:30:00,axn,56.06
2023-12-19T11:31:00,axn,55.52
2023-12-19T11:32:00,axn,59.38
2023-12-19T11:33:00,axn,60.68
2023-12-19T11:34:00,axn,60.85
2023-12-19T11:35:00,axn,61.72
2023-12-19T11:36:00,axn,55.88
2023-12-19T11:37:00,axn,58.03
2023-12-19T11:38:00,axn,55.77
2023-12-19T11:39:00,axn,57.44
2023-12-19T11:40:00,axn,56.71
2023-12-19T11:41:00,axn,51.96
2023-12-19T11:42:00,axn,56.24
2023-12-19T11:43:00,axn,57.22
2023-12-19T11:44:00,axn,60.61
2023-12-19T11:45:00,axn,64.42
2023-12-19T11:46:00,axn,63.78
2023-12-19T11:47:00,axn,62.15
2023-12-19T11:48:00,axn,63.29
2023-12-19T11:49:00,axn,60.86
2023-12-19T11:50:00,axn,60.34
2023-12-19T11:51:00,axn,59.57
2023-12-19T11:52:00,axn,62.93
2023-12-19T11:53:00,axn,58.56
2023-12-19T11:54:00,axn,60.23
2023-12-19T11:55:00,axn,59.87
2023-12-19T11:56:00,axn,56.10
2023-12-19T11:57:00,axn,57.96
2023-12-19T11:58:00,axn,64.70
2023-12-19T11:59:00,axn,63.38
2023-12-19T12:00:00,axn,60.03
2023-12-19T12:01:00,axn,64.54
2023-12-19T12:02:00,axn,67.09
2023-12-19T12:03:00,axn,66.62
2023-12-19T12:04:00,axn,57.52
2023-12-19T12:05:00,axn,60.42
2023-12-19T12:06:00,axn,64.43
2023-12-19T12:07:00,axn,60.38
2023-12-19T12:08:00,axn,61.88
2023-12-19T12:09:00,axn,59.48
2023-12-19T12:10:00,axn,63.81
2023-12-19T12:11:00,axn,62.59
2023-12-19T12:12:00,axn,67.12
2023-12-19T12:13:00,axn,68.22
2023-12-19T12:14:00,axn,67.68
2023-12-19T12:15:00,axn,60.19
2023-12-19T12:16:00,axn,58.54
2023-12-19T12:17:00,axn,60.48
2023-12-19T12:18:00,axn,61.28
2023-12-19T12:19:00,axn,76.93
2023-12-19T12:20:00,axn,76.40
2023-12-19T12:21:00,axn,74.03
2023-12-19T12:22:00,axn,74.67
2023-12-19T12:23:00,axn,76.56
2023-12-19T12:24:00,axn,61.21
2023-12-19T12:25:00,axn,61.20
2023-12-19T12:26:00,axn,59.13
2023-12-19T12:27:00,axn,57.27
2023-12-19T12:28:00,axn,59.77
2023-12-19T12:29:00,axn,60.80
2023-12-19T12:30:00,axn,58.56
2023-12-19T12:31:00,axn,51.88
2023-12-19T12:32:00,axn,68.30
2023-12-19T12:33:00,axn,55.19
2023-12-19T12:34:00,axn,54.26
2023-12-19T12:35:00,axn,55.25
2023-12-19T12:36:00,axn,54.94
2023-12-19T12:37:00,axn,55.40
2023-12-19T12:38:00,axn,53.32
2023-12-19T12:39:00,axn,52.53
2023-12-19T12:40:00,axn,50.41
2023-12-19T12:41:00,axn,53.76
2023-12-19T12:42:00,axn,51.37
2023-12-19T12:43:00,axn,52.18
2023-12-19T12:44:00,axn,52.20
2023-12-19T12:45:00,axn,51.69
2023-12-19T12:46:00,axn,54.67
2023-12-19T12:47:00,axn,52.58
2023-12-19T12:48:00,axn,51.48
2023-12-19T12:49:00,axn,47.89
2023-12-19T12:50:00,axn,48.75
2023-12-19T12:51:00,axn,48.38
2023-12-19T12:52:00,axn,48.15
2023-12-19T12:53:00,axn,49.79
2023-12-19T12:54:00,axn,48.89
2023-12-19T12:55:00,axn,50.76
2023-12-19T12:56:00,axn,49.27
2023-12-19T12:57:00,axn,49.32
2023-12-19T12:58:00,axn,47.98
2023-12-19T12:59:00,axn,47.39
2023-12-19T13:00:00,axn,47.01
2023-12-19T13:01:00,axn,52.44
2023-12-19T13:02:00,axn,51.62
2023-12-19T13:03:00,axn,51.73
2023-12-19T13:04:00,axn,52.76
2023-12-19T13:05:00,axn,49.40
2023-12-19T13:06:00,axn,51.65
2023-12-19T13:07:00,axn,52.22
2023-12-19T13:08:00,axn,53.36
2023-12-19T13:09:00,axn,52.15
2023-12-19T13:10:00,axn,52.54
2023-12-19T13:11:00,axn,52.88
2023-12-19T13:12:00,axn,53.68
2023-12-19T13:13:00,axn,50.84
2023-12-19T13:14:00,axn,50.56
2023-12-19T13:15:00,axn,54.58
2023-12-19T13:16:00,axn,55.50
2023-12-19T13:17:00,axn,53.20
2023-12-19T13:18:00,axn,51.81
2023-12-19T13:19:00,axn,53.47